Change the Weather History Date:

Thursday, February 2, 2012

  Actual Average Record
Temperature  
Mean Temperature 52 °F -  
Max Temperature 58 °F 50 °F 79 °F (1989)
Min Temperature 44 °F 35 °F 14 °F (1971)
Degree Days  
Heating Degree Days 14    
Growing Degree Days 2 (Base 50)    
Moisture  
Dew Point 53 °F    
Average Humidity 98    
Maximum Humidity 100    
Minimum Humidity 61    
Precipitation  
Precipitation 0.37 in - - ()
Sea Level Pressure  
Sea Level Pressure 30.02 in    
Wind  
Wind Speed 8 mph (WSW)    
Max Wind Speed 20 mph    
Max Gust Speed -    
Visibility 4 miles    
Events Fog , Rain    
Averages and records for this station are not official NWS values.
T = Trace of Precipitation, MM = Missing Value Source: NWS Daily Summary

Daily Weather History Graph

Daily Weather History Graph

Search for Another Location

Airport or City:

Trip Planner

Search our weather history database for the weather conditions in past years. The results will help you decide how hot, cold, wet, or windy it might be!

Date:

Astronomy

Feb. 02, 2012 Rise Set
Actual Time 7:07 AM EST 5:30 PM EST
Civil Twilight 6:40 AM EST 5:58 PM EST
Nautical Twilight 6:09 AM EST 6:29 PM EST
Astronomical Twilight 5:38 AM EST 6:59 PM EST
Moon 12:43 PM EST (2/2) 2:45 AM EST (2/2)
Length of Visible Light 11h 17m
Length of Day
10h 23m
Waxing Gibbous, 73% of the Moon is Illuminated
Feb 2
Waxing Gibbous
Feb 7
Full
Feb 14
Last Quarter
Feb 21
New
Feb 29
First Quarter

Hourly Weather History & Observations

Time (EST) Temp. Windchill Dew Point Humidity Pressure Visibility Wind Dir Wind Speed Gust Speed Precip Events Conditions
12:09 AM 55.4 °F - 55.4 °F 100% 30.08 in 7.0 mi SSW 5.8 mph - N/A Rain Light Rain
12:20 AM 55.4 °F - 55.4 °F 100% 30.07 in 4.0 mi SSW 5.8 mph - N/A Rain Light Rain
12:55 AM 54.9 °F - 54.9 °F 100% 30.06 in 5.0 mi SSW 5.8 mph - 0.03 in Rain Light Rain
1:55 AM 54.9 °F - 54.9 °F 100% 30.05 in 3.0 mi SSW 8.1 mph - 0.06 in Rain Light Rain
2:05 AM 55.4 °F - 55.4 °F 100% 30.04 in 3.0 mi SSW 8.1 mph - N/A Rain Light Rain
2:12 AM 55.4 °F - 55.4 °F 100% 30.04 in 4.0 mi SW 9.2 mph - N/A Rain Light Rain
2:13 AM 55.4 °F - 55.4 °F 100% 30.04 in 4.0 mi SW 9.2 mph - N/A Rain Light Rain
2:18 AM 55.4 °F - 55.4 °F 100% 30.04 in 4.0 mi SW 6.9 mph - N/A Rain Light Rain
2:22 AM 55.4 °F - 55.4 °F 100% 30.04 in 3.0 mi SSW 6.9 mph - N/A Rain Light Rain
2:34 AM 55.4 °F - 55.4 °F 100% 30.03 in 4.0 mi SW 6.9 mph - N/A Rain Light Rain
2:55 AM 54.9 °F - 54.9 °F 100% 30.03 in 4.0 mi SW 8.1 mph - 0.05 in Rain Light Rain
3:07 AM 55.4 °F - 55.4 °F 100% 30.02 in 4.0 mi SW 6.9 mph - N/A Rain Light Rain
3:14 AM 55.4 °F - 55.4 °F 100% 30.02 in 2.5 mi SW 6.9 mph - N/A Rain Light Rain
3:21 AM 55.4 °F - 55.4 °F 100% 30.02 in 2.5 mi SW 8.1 mph - N/A Rain Light Rain
3:30 AM 55.4 °F - 55.4 °F 100% 30.02 in 1.8 mi SW 8.1 mph - N/A Rain Rain
3:33 AM 55.4 °F - 55.4 °F 100% 30.02 in 1.5 mi SW 6.9 mph - N/A Rain Rain
3:40 AM 55.4 °F - 55.4 °F 100% 30.02 in 1.8 mi SW 6.9 mph - N/A Rain Light Rain
3:44 AM 55.4 °F - 55.4 °F 100% 30.02 in 2.0 mi SW 6.9 mph - N/A Rain Light Rain
3:55 AM 54.7 °F - 54.7 °F 100% 30.02 in 2.0 mi SW 6.9 mph - 0.06 in Rain Light Rain
3:58 AM 55.4 °F - 55.4 °F 100% 30.02 in 2.0 mi SW 6.9 mph - N/A Rain Light Rain
3:59 AM 55.4 °F - 55.4 °F 100% 30.02 in 1.8 mi SW 6.9 mph - N/A Rain Light Rain
4:03 AM 55.4 °F - 55.4 °F 100% 30.01 in 2.0 mi SSW 6.9 mph - N/A Rain Light Rain
4:04 AM 55.4 °F - 55.4 °F 100% 30.01 in 2.0 mi SSW 8.1 mph - N/A Rain Light Rain
4:12 AM 55.4 °F - 55.4 °F 100% 30.01 in 2.5 mi SSW 6.9 mph - N/A Rain Light Rain
4:15 AM 55.4 °F - 55.4 °F 100% 30.01 in 2.5 mi SSW 8.1 mph - N/A Rain Light Rain
4:16 AM 55.4 °F - 55.4 °F 100% 30.01 in 3.0 mi SSW 6.9 mph - N/A Rain Light Rain
4:30 AM 55.4 °F - 55.4 °F 100% 30.00 in 3.0 mi South 6.9 mph - N/A Rain Light Rain
4:31 AM 55.4 °F - 55.4 °F 100% 30.00 in 3.0 mi South 6.9 mph - N/A   Overcast
4:40 AM 55.4 °F - 55.4 °F 100% 30.00 in 4.0 mi South 6.9 mph - N/A   Overcast
4:45 AM 55.4 °F - 55.4 °F 100% 29.99 in 4.0 mi South 6.9 mph - N/A   Overcast
4:55 AM 54.5 °F - 54.5 °F 100% 29.99 in 4.0 mi South 4.6 mph - 0.04 in   Overcast
5:21 AM 53.6 °F - 53.6 °F 100% 29.98 in 4.0 mi South 6.9 mph - N/A Rain Light Rain
5:27 AM 53.6 °F - 53.6 °F 100% 29.98 in 3.0 mi South 6.9 mph - N/A Rain Light Rain
5:40 AM 53.6 °F - 53.6 °F 100% 29.98 in 2.5 mi South 6.9 mph - N/A Rain Light Rain
5:43 AM 53.6 °F - 53.6 °F 100% 29.98 in 2.0 mi South 5.8 mph - N/A Rain Light Rain
5:44 AM 53.6 °F - 53.6 °F 100% 29.98 in 2.0 mi South 5.8 mph - N/A Rain Light Rain
5:48 AM 53.6 °F - 53.6 °F 100% 29.98 in 1.5 mi South 6.9 mph - N/A Rain Light Rain
5:55 AM 53.8 °F - 53.8 °F 100% 29.98 in 1.5 mi South 6.9 mph - 0.01 in Rain Light Rain
5:59 AM 53.6 °F - 53.6 °F 100% 29.98 in 1.5 mi South 9.2 mph - N/A Rain Light Rain
6:09 AM 53.6 °F - 53.6 °F 100% 29.98 in 1.8 mi South 10.4 mph - N/A Rain Light Rain
6:10 AM 53.6 °F - 53.6 °F 100% 29.98 in 1.8 mi South 10.4 mph - N/A Rain Light Rain
6:12 AM 53.6 °F - 53.6 °F 100% 29.98 in 1.8 mi South 9.2 mph - N/A Rain Light Rain
6:18 AM 53.6 °F - 53.6 °F 100% 29.97 in 2.0 mi South 10.4 mph - N/A Rain Light Rain
6:19 AM 53.6 °F - 53.6 °F 100% 29.97 in 2.0 mi South 10.4 mph - N/A Rain Light Rain
6:27 AM 53.6 °F - 53.6 °F 100% 29.97 in 2.5 mi South 9.2 mph - N/A Rain Light Rain
6:36 AM 53.6 °F - 53.6 °F 100% 29.97 in 2.5 mi South 6.9 mph - N/A   Overcast
6:43 AM 53.6 °F - 53.6 °F 100% 29.96 in 3.0 mi South 6.9 mph - N/A   Overcast
6:46 AM 53.6 °F - 53.6 °F 100% 29.96 in 3.0 mi South 6.9 mph - N/A   Overcast
6:55 AM 54.0 °F - 54.0 °F 100% 29.96 in 3.0 mi South 6.9 mph - 0.01 in   Overcast
6:56 AM 53.6 °F - 53.6 °F 100% 29.96 in 4.0 mi South 6.9 mph - N/A Rain Light Rain
7:01 AM 53.6 °F - 53.6 °F 100% 29.97 in 4.0 mi South 9.2 mph - N/A   Overcast
7:12 AM 53.6 °F - 53.6 °F 100% 29.96 in 3.0 mi South 8.1 mph - N/A   Overcast
7:16 AM 53.6 °F - 53.6 °F 100% 29.96 in 2.5 mi South 8.1 mph - N/A   Overcast
7:25 AM 53.6 °F - 53.6 °F 100% 29.97 in 2.5 mi SW 6.9 mph - N/A   Overcast
7:29 AM 53.6 °F - 53.6 °F 100% 29.97 in 3.0 mi SW 8.1 mph - N/A   Overcast
7:43 AM 53.6 °F - 53.6 °F 100% 29.97 in 3.0 mi SSW 10.4 mph - N/A Rain Light Rain
7:55 AM 54.1 °F - 54.1 °F 100% 29.97 in 3.0 mi WSW 9.2 mph - 0.00 in Rain Light Rain
7:56 AM 53.6 °F - 53.6 °F 100% 29.97 in 3.0 mi WSW 9.2 mph - N/A   Overcast
8:13 AM 53.6 °F - 53.6 °F 100% 29.98 in 4.0 mi WSW 9.2 mph - N/A Rain Light Rain
8:30 AM 53.6 °F - 53.6 °F 100% 29.98 in 2.5 mi WSW 9.2 mph - N/A Rain Light Rain
8:33 AM 53.6 °F - 53.6 °F 100% 29.98 in 2.0 mi WSW 11.5 mph - N/A Rain Light Rain
8:36 AM 53.6 °F - 53.6 °F 100% 29.98 in 1.8 mi WSW 9.2 mph - N/A Rain Light Rain
8:37 AM 53.6 °F - 53.6 °F 100% 29.98 in 1.8 mi WSW 9.2 mph - N/A   Overcast
8:55 AM 54.3 °F - 54.3 °F 100% 29.98 in 1.8 mi WSW 9.2 mph - 0.00 in   Overcast
8:58 AM 53.6 °F - 53.6 °F 100% 29.98 in 2.5 mi WSW 8.1 mph - N/A   Overcast
9:03 AM 55.4 °F - 55.4 °F 100% 29.97 in 3.0 mi WSW 9.2 mph - N/A   Overcast
9:04 AM 55.4 °F - 55.4 °F 100% 29.97 in 3.0 mi WSW 9.2 mph - N/A   Overcast
9:55 AM 55.0 °F - 55.0 °F 100% 29.98 in 3.0 mi West 10.4 mph - N/A   Overcast
9:57 AM 55.4 °F - 55.4 °F 100% 29.98 in 2.5 mi West 9.2 mph - N/A   Overcast
10:04 AM 55.4 °F - 55.4 °F 100% 29.98 in 2.0 mi West 10.4 mph - N/A   Overcast
10:05 AM 55.4 °F - 55.4 °F 100% 29.98 in 2.0 mi West 9.2 mph - N/A   Overcast
10:08 AM 55.4 °F - 55.4 °F 100% 29.98 in 1.8 mi West 10.4 mph - N/A   Overcast
10:11 AM 55.4 °F - 55.4 °F 100% 29.98 in 1.5 mi West 8.1 mph - N/A   Overcast
10:15 AM 55.4 °F - 55.4 °F 100% 29.98 in 1.2 mi West 8.1 mph - N/A   Overcast
10:19 AM 55.4 °F - 55.4 °F 100% 29.98 in 1.0 mi WNW 9.2 mph - N/A   Overcast
10:24 AM 55.4 °F - 55.4 °F 100% 29.98 in 1.0 mi NNW 8.1 mph - N/A   Overcast
10:25 AM 55.4 °F - 55.4 °F 100% 29.98 in 1.2 mi NNW 8.1 mph - N/A   Overcast
10:29 AM 55.4 °F - 55.4 °F 100% 29.99 in 1.5 mi North 9.2 mph - N/A   Overcast
10:30 AM 55.4 °F - 55.4 °F 100% 29.99 in 1.5 mi North 10.4 mph - N/A Rain Light Rain
10:34 AM 53.6 °F - 53.6 °F 100% 29.99 in 1.5 mi NNW 10.4 mph - N/A Rain Light Rain
10:36 AM 51.8 °F - 51.8 °F 100% 29.99 in 1.8 mi NNW 9.2 mph - N/A Rain Light Rain
10:40 AM 51.8 °F - 51.8 °F 100% 29.99 in 1.8 mi North 10.4 mph - N/A Rain Light Rain
10:45 AM 51.8 °F - 51.8 °F 100% 29.99 in 1.5 mi NNW 9.2 mph - N/A Rain Light Rain
10:48 AM 51.8 °F - 51.8 °F 100% 30.00 in 1.5 mi NNW 9.2 mph - N/A Rain Light Rain
10:55 AM 51.3 °F - 51.3 °F 100% 30.00 in 1.5 mi NNW 10.4 mph - 0.00 in Rain Light Rain
10:58 AM 51.8 °F - 51.8 °F 100% 30.01 in 1.8 mi NNW 10.4 mph - N/A Rain Light Rain
11:10 AM 50.0 °F - 50.0 °F 100% 30.01 in 1.2 mi NNW 12.7 mph - N/A Rain Light Rain
11:13 AM 50.0 °F - 50.0 °F 100% 30.02 in 1.0 mi NNW 12.7 mph - N/A Rain Light Rain
11:16 AM 50.0 °F - 50.0 °F 100% 30.03 in 0.8 mi NNW 16.1 mph - N/A Rain Light Rain
11:17 AM 50.0 °F - 50.0 °F 100% 30.03 in 0.8 mi NNW 17.3 mph - N/A Rain Light Rain
11:20 AM 50.0 °F - 50.0 °F 100% 30.03 in 0.8 mi NNW 19.6 mph - N/A Rain Heavy Rain
11:23 AM 50.0 °F - 50.0 °F 100% 30.03 in 0.5 mi NNW 17.3 mph - N/A Fog , Rain Heavy Rain
11:26 AM 50.0 °F - 50.0 °F 100% 30.04 in 0.8 mi NNW 18.4 mph - N/A Rain Heavy Rain
11:36 AM 50.0 °F - 50.0 °F 100% 30.04 in 2.5 mi NNW 15.0 mph - N/A Rain Light Rain
11:38 AM 50.0 °F - 50.0 °F 100% 30.03 in 3.0 mi NNW 15.0 mph - N/A Rain Light Rain
11:55 AM 51.6 °F - 51.6 °F 100% 30.02 in 5.0 mi North 11.5 mph - 0.10 in Rain Light Rain
11:56 AM 51.8 °F - 51.8 °F 100% 30.03 in 9.0 mi North 11.5 mph - N/A Rain Light Rain
12:07 PM 51.8 °F - 51.8 °F 100% 30.02 in 10.0 mi North 8.1 mph - N/A   Overcast
12:39 PM 50.0 °F - 50.0 °F 100% 30.02 in 10.0 mi North 10.4 mph - N/A   Mostly Cloudy
12:55 PM 53.4 °F - 53.1 °F 99% 30.01 in 10.0 mi North 9.2 mph - 0.01 in   Overcast
1:12 PM 53.6 °F - 51.8 °F 94% 30.02 in 10.0 mi North 9.2 mph - N/A   Overcast
1:17 PM 53.6 °F - 51.8 °F 94% 30.03 in 10.0 mi North 9.2 mph - N/A   Overcast
1:55 PM 56.3 °F - 50.5 °F 81% 30.03 in 10.0 mi North 5.8 mph - N/A   Partly Cloudy
2:55 PM 58.6 °F - 45.7 °F 62% 30.05 in 10.0 mi NW 9.2 mph - N/A   Scattered Clouds
3:55 PM 58.5 °F - 45.0 °F 61% 30.06 in 10.0 mi NNW 8.1 mph - N/A   Partly Cloudy
4:55 PM 50.5 °F - 48.0 °F 91% 30.09 in 10.0 mi ENE 6.9 mph - N/A   Clear
5:55 PM 48.0 °F - 47.7 °F 99% 30.11 in 10.0 mi Calm Calm - N/A   Clear
6:55 PM 46.4 °F 45.2 °F 46.4 °F 100% 30.15 in 10.0 mi South 3.5 mph - N/A   Partly Cloudy
7:31 PM 46.4 °F - 46.4 °F 100% 30.17 in 9.0 mi Calm Calm - N/A   Mostly Cloudy
7:36 PM 46.4 °F 45.2 °F 46.4 °F 100% 30.19 in 9.0 mi North 3.5 mph - N/A Rain Light Rain
7:41 PM 46.4 °F 44.3 °F 46.4 °F 100% 30.19 in 8.0 mi North 4.6 mph - N/A Rain Light Rain
7:43 PM 46.4 °F 44.3 °F 46.4 °F 100% 30.20 in 8.0 mi NNW 4.6 mph - N/A Rain Light Rain
7:51 PM 48.2 °F - 48.2 °F 100% 30.19 in 10.0 mi Variable 1.2 mph - N/A   Light Drizzle
7:55 PM 47.3 °F - 47.3 °F 100% 30.20 in 10.0 mi Calm Calm - 0.00 in   Light Drizzle
8:01 PM 48.2 °F - 48.2 °F 100% 30.20 in 10.0 mi NE 6.9 mph - N/A   Scattered Clouds
8:55 PM 47.3 °F - 43.7 °F 87% 30.25 in 10.0 mi NNE 10.4 mph - 0.00 in   Clear
9:55 PM 45.9 °F 41.7 °F 39.7 °F 79% 30.28 in 10.0 mi North 8.1 mph - N/A   Clear
10:55 PM 45.3 °F 41.1 °F 35.2 °F 68% 30.30 in 10.0 mi NNW 8.1 mph - N/A   Clear
11:55 PM 44.1 °F 39.0 °F 32.4 °F 63% 30.32 in 10.0 mi North 9.2 mph - N/A   Clear